Weather History for OTBD - July, 2013

Change the Weather History Date:

Tuesday, July 30, 2013

  Actual Average Record
Temperature  
Mean Temperature 99 °F -  
Max Temperature 107 °F 105 °F 118 °F (2015)
Min Temperature 91 °F 84 °F 71 °F (2001)
Cooling Degree Days 34    
Growing Degree Days 49 (Base 50)    
Moisture  
Dew Point 52 °F    
Average Humidity 22    
Maximum Humidity 43    
Minimum Humidity 8    
Precipitation  
Precipitation 0.00 in 0.00 in - ()
Sea Level Pressure  
Sea Level Pressure 29.46 in    
Wind  
Wind Speed 10 mph ()    
Max Wind Speed 21 mph    
Max Gust Speed 33 mph    
Visibility 5.6 miles    
Events      
Averages and records for this station are not official NWS values.
T = Trace of Precipitation, MM = Missing Value Source: Averaged Metar Reports

Daily Weather History Graph

Daily Weather History Graph

Search for Another Location

Airport or City:

Trip Planner

Search our weather history database for the weather conditions in past years. The results will help you decide how hot, cold, wet, or windy it might be!

Date:

Astronomy

Jul. 30, 2013 Rise Set
Actual Time 4:59 AM AST 6:20 PM AST
Civil Twilight 4:35 AM AST 6:44 PM AST
Nautical Twilight 4:05 AM AST 7:14 PM AST
Astronomical Twilight 3:35 AM AST 7:44 PM AST
Moon 11:38 PM AST (7/30) 12:21 PM AST (7/30)
Length of Visible Light 14h 09m
Length of Day
13h 20m
Last Quarter, 44% of the Moon is Illuminated
Jul 30
Last Quarter
Aug 7
New
Aug 14
First Quarter
Aug 21
Full
Aug 28
Last Quarter

Hourly Weather History & Observations

Time (AST) Temp. Heat Index Dew Point Humidity Pressure Visibility Wind Dir Wind Speed Gust Speed Precip Events Conditions
12:00 AM 96.8 °F 95.8 °F 57.2 °F 27% 29.47 in - NW 10.4 mph - N/A   Clear
1:00 AM 96.8 °F 95.1 °F 55.4 °F 25% 29.47 in - NW 10.4 mph - N/A   Clear
2:30 AM 96.8 °F 95.1 °F 55.4 °F 25% 29.44 in - NW 10.4 mph - N/A   Clear
3:00 AM 95.0 °F 93.7 °F 57.2 °F 28% 29.44 in - NW 9.2 mph - N/A   Clear
4:00 AM 96.8 °F 95.8 °F 57.2 °F 27% 29.44 in - NNW 15.0 mph - N/A   Clear
5:00 AM 93.2 °F 94.9 °F 64.4 °F 38% 29.47 in 5.6 mi West 5.8 mph - N/A   Unknown
6:00 AM 91.4 °F 94.0 °F 66.2 °F 43% 29.47 in 5.6 mi West 4.6 mph - N/A   Unknown
7:00 AM 95.0 °F 98.5 °F 66.2 °F 39% 29.50 in 5.6 mi West 8.1 mph - N/A   Unknown
8:00 AM 98.6 °F 101.0 °F 64.4 °F 32% 29.50 in - WNW 10.4 mph - N/A   Clear
9:00 AM 102.2 °F 103.6 °F 60.8 °F 26% 29.50 in - NW 10.4 mph - N/A   Clear
10:00 AM 104.0 °F 102.9 °F 55.4 °F 20% 29.50 in - NW 17.3 mph - N/A   Clear
11:00 AM 105.8 °F - 48.2 °F 14% 29.47 in - NNW 18.4 mph - N/A   Clear
12:00 PM 107.6 °F - 46.4 °F 13% 29.47 in - NW 17.3 mph - N/A   Clear
1:00 PM 107.6 °F - 42.8 °F 11% 29.44 in - NW 13.8 mph - N/A   Clear
2:00 PM 107.6 °F - 42.8 °F 11% 29.44 in - NW 16.1 mph 28.8 mph N/A   Clear
3:00 PM 107.6 °F - 35.6 °F 8% 29.42 in - NW 20.7 mph 33.4 mph N/A   Clear
4:00 PM 107.6 °F - 37.4 °F 9% 29.42 in - NNW 18.4 mph - N/A   Clear
5:00 PM 105.8 °F - 42.8 °F 12% 29.42 in - NNW 18.4 mph - N/A   Clear
6:00 PM 102.2 °F - 42.8 °F 13% 29.44 in - NNW 15.0 mph - N/A   Clear
7:00 PM 100.4 °F - 48.2 °F 17% 29.44 in - NNW 10.4 mph - N/A   Clear
8:00 PM 100.4 °F - 50.0 °F 18% 29.44 in - NW 8.1 mph - N/A   Clear
9:00 PM 98.6 °F - 50.0 °F 19% 29.47 in - NW 6.9 mph - N/A   Clear
10:00 PM 98.6 °F - 50.0 °F 19% 29.47 in - NW 6.9 mph - N/A   Clear
11:00 PM 96.8 °F 95.1 °F 55.4 °F 25% 29.44 in - Variable 4.6 mph - N/A   Clear